Location: Mering
(48.2662°N, 10.9858°E)
Time: 12:43:59
(UTC+00:00)

Daily predictions for brighter satellites

Satellite Brightness Start Highest point End
(mag) Time Altitude Azimuth Time Altitude Azimuth Time Altitude Azimuth
NOSS 2-1 (E) 3.5 17:58:58 10° NW 18:02:42 70° NE 18:07:49 10° SE
Cosmos 1328 Rocket 3.8 17:59:45 10° N 18:03:54 47° ENE 18:08:04 10° SSE
Cosmos 1356 Rocket 4.3 18:02:53 10° N 18:06:38 30° ENE 18:10:21 10° SE
Cosmos 1674 2.5 18:03:58 10° N 18:07:13 50° ENE 18:10:27 10° SSE
Lacrosse 4 Rocket 2.1 18:03:33 10° NW 18:07:51 60° WSW 18:12:04 10° SSE
NOSS 2-1 (D) 3.5 18:06:39 10° NW 18:10:23 84° NE 18:15:30 10° SE
BREEZE-M DEB (TANK) 3.2 18:08:06 10° W 18:10:33 73° N 18:15:34 10° E
Meteor 1-18 Rocket 4.4 18:05:11 10° NNW 18:11:09 86° WSW 18:17:00 10° S
SJ-6B 2.7 18:07:48 10° SSE 18:11:21 57° ENE 18:14:53 10° N
SeaSat 1 3.3 18:08:58 10° NNE 18:13:46 55° NW 18:18:33 10° SW
Cosmos 2333 Rocket 3.7 18:08:27 10° WSW 18:13:54 42° NW 18:19:22 10° NNE
Iridium 4 Rocket 2.9 18:10:10 10° N 18:14:20 71° E 18:18:29 10° S
CARTOSAT-1 4.3 18:10:40 10° SE 18:14:27 33° ENE 18:18:16 10° N
Meteor 1-4 Rocket 2.2 18:12:11 10° N 18:14:44 39° ENE 18:17:15 10° SSE
Cosmos 1151 Rocket 3.9 18:11:00 10° NNW 18:15:09 53° W 18:19:16 10° S
Cosmos 1340 2.9 18:12:15 10° SSW 18:15:28 60° WNW 18:18:42 10° N
ATLAS CENTAUR R/B 2.7 18:13:29 10° SSE 18:15:32 15° ESE 18:17:38 10° ENE
Cosmos 2369 Rocket 4.2 18:16:07 10° N 18:19:09 14° NNE 18:22:11 10° ENE
Cosmos 1980 4.3 18:16:03 10° SSE 18:21:01 32° ESE 18:26:02 10° NE
ARGOS Delta rocket 4.0 18:16:20 10° SSE 18:21:16 58° ENE 18:25:58 10° N
Cosmos 1733 4.1 18:21:59 10° SE 18:24:43 22° E 18:27:27 10° NE
NOSS 0 Rocket 4.1 18:21:08 10° S 18:27:06 50° ESE 18:33:07 10° NE
Cosmos 1943 Rocket 2.5 18:22:21 10° NNW 18:27:40 47° NE 18:32:34 12° SE
USA 276 1.7 18:25:36 10° WNW 18:28:30 83° SSW 18:30:24 18° ESE
Nadezhda 4 Rocket 4.4 18:24:28 10° N 18:30:24 42° ENE 18:36:19 10° SE
ACS3 Solar Sail 2.5 18:24:48 10° SE 18:30:34 37° ENE 18:36:21 10° N
Cosmos 1400 Rocket 3.1 18:27:38 10° NNW 18:31:27 66° W 18:35:10 10° S
Cosmos 2322 3.8 18:26:43 10° SSW 18:32:22 82° WNW 18:38:04 10° NNE
CSL-04 Debris 4.5 18:27:12 10° SE 18:32:27 50° ENE 18:37:43 10° N
Sich 1 4.5 18:30:57 14° ESE 18:32:43 18° E 18:35:38 10° NE
Cosmos 2233 Rocket 4.5 18:27:18 10° SSW 18:33:22 66° WNW 18:39:33 10° N
BlueWalker 3 3.0 18:31:04 10° WNW 18:34:33 37° SW 18:37:58 10° SSE
Cosmos 1726 3.1 18:33:24 10° SSW 18:36:02 37° WNW 18:38:39 10° N
Resurs 1-3 4.0 18:32:00 10° S 18:36:18 64° W 18:40:37 10° NNW
Terra 3.8 18:35:11 10° ENE 18:36:49 12° NE 18:38:40 10° NNE
Cosmos 1513 Rocket 4.4 18:35:27 10° S 18:41:24 65° E 18:47:27 10° NNE
Cosmos 1805 4.5 18:47:21 20° E 18:47:21 20° E 18:49:56 10° NE
Cosmos 1315 Rocket 3.5 18:43:37 10° N 18:47:17 34° ENE 18:49:14 21° ESE
Meteor PRIRODA 4.4 18:45:53 10° S 18:49:04 47° W 18:52:16 10° NNW
Cosmos 1464 Rocket 4.1 18:43:09 10° S 18:49:18 58° E 18:55:33 10° NNE
Cosmos 1125 Rocket 3.5 18:46:11 10° NNW 18:51:22 63° ENE 18:55:24 17° SE
SL-16 R/B 3.7 18:53:32 16° E 18:53:32 16° E 18:55:43 10° ENE
Cosmos 1842 3.3 18:48:48 10° NNW 18:52:25 69° W 18:56:00 10° S
Cosmos 1536 2.6 18:50:20 10° S 18:54:05 63° E 18:57:53 10° NNE
Okean 3 Rocket 3.5 18:50:07 10° S 18:54:33 70° E 18:58:59 10° NNE
USA 59 Rocket 1.0 18:50:47 10° NW 18:54:36 46° SW 18:59:48 10° SSE
COSMOS 2428 3.1 18:50:32 10° SW 18:56:13 68° WNW 19:01:58 10° NNE
Cosmos 1707 2.6 18:52:41 10° NNW 18:56:14 76° W 18:59:46 10° S
Cosmos 1515 Rocket 3.4 18:52:10 10° N 18:56:31 76° E 19:00:44 11° SSE
Okean O Rocket 1.8 18:57:42 20° SE 19:00:33 53° ENE 19:04:53 10° N
Feng Yun 1-1 Rocket 4.3 18:55:44 10° SSE 19:01:31 82° ENE 19:07:28 10° NNW
SL-14 R/B 4.1 19:01:40 10° N 19:05:02 29° ENE 19:05:27 29° E
Cosmos 2278 Rocket 2.5 19:01:45 10° NNW 19:07:23 67° WSW 19:12:39 12° SSE
USA 306 3.3 19:05:53 10° W 19:08:59 45° NNW 19:11:32 17° NE
CZ-4 R/B 2.4 19:05:58 10° S 19:09:37 43° W 19:13:21 10° NNW
Meteor 1-13 Rocket 4.2 19:03:56 10° N 19:09:51 80° ENE 19:14:59 13° SSE
Meteor 2-9 Rocket 4.1 19:05:19 10° S 19:10:31 57° E 19:15:51 10° NNE
PSLV R/B 4.0 19:09:57 38° ESE 19:10:37 43° ENE 19:13:59 10° N
Cosmos 2034 Rocket 4.0 19:05:32 10° S 19:11:34 57° E 19:17:36 10° NNE
CZ-4B R/B 3.3 19:07:28 10° SSE 19:12:57 78° WSW 19:18:21 10° NNW
Cosmos 1500 Rocket 3.7 19:10:44 21° SSE 19:13:21 49° E 19:17:33 10° NNE
Resurs 01 Rocket 2.0 19:10:43 10° S 19:15:05 63° WSW 19:19:31 10° NNW
NOSS 3-3 (C) 3.9 19:11:16 10° S 19:16:20 45° ESE 19:22:12 10° NE
Helios 1A 4.1 19:12:30 10° N 19:16:22 43° WNW 19:20:13 10° SW
Meteor 2-10 4.1 19:11:48 10° S 19:17:23 81° E 19:23:08 10° NNE
USA 290 4.2 19:14:42 10° NW 19:17:34 28° WSW 19:20:16 11° SSW
Cosmos 2228 Rocket 4.3 19:13:54 10° NNE 19:17:44 25° ENE 19:17:55 25° ENE
GEOS 3 Rocket 4.3 19:13:39 15° SSE 19:17:48 51° SW 19:22:52 10° NW
Meteor 1-23 Rocket 4.3 19:13:10 10° N 19:18:44 59° ENE 19:21:41 28° SE
Cosmos 1743 Rocket 3.8 19:19:19 38° ESE 19:20:05 42° E 19:24:11 10° NNE
USA 186 3.1 19:17:45 12° SSW 19:20:28 39° W 19:23:33 10° NNW
MOS 1-B 4.4 19:17:39 14° SSE 19:22:48 83° WSW 19:28:37 10° NNW
SPOT 5 2.9 19:22:14 37° ESE 19:23:35 50° ENE 19:27:54 10° N
Okean-O 2.7 19:23:05 40° ESE 19:24:20 55° ENE 19:28:39 10° N
USA 267 4.1 19:21:01 15° ENE 19:26:05 44° N 19:32:11 10° WNW
Cosmos 2208 Rocket 3.9 19:21:24 10° S 19:26:35 66° ESE 19:31:54 10° NNE
Cosmos 1408 Rocket 3.5 19:23:56 10° S 19:28:18 90° NNE 19:32:44 10° N
NOSS 3-3 (A) 3.7 19:25:11 10° SSW 19:30:26 60° ESE 19:36:36 10° NE
ISS -3.9 19:27:18 10° WSW 19:30:40 85° SSE 19:30:43 84° SE
MOS 1 4.2 19:31:48 31° SSE 19:34:37 74° ENE 19:40:19 10° NNW
Cosmos 2237 Rocket 2.3 19:29:33 10° SSW 19:35:11 79° WNW 19:40:51 10° NNE
CSL-04 Rocket 4.2 19:31:45 11° S 19:36:49 55° W 19:42:03 10° NNW
Aureole 3 Rocket 3.7 19:30:33 10° S 19:37:26 77° E 19:42:20 10° NNE
Cosmos 1607 4.3 19:32:13 10° S 19:38:13 42° ESE 19:44:14 10° NE
Cosmos 2297 4.1 19:40:29 10° NNW 19:45:56 47° NE 19:47:04 41° E
Meteor 1-11 Rocket 4.0 19:40:56 10° SSW 19:46:31 66° WNW 19:52:03 10° N
MOS 1 Rocket 3.5 19:45:39 50° SE 19:46:50 67° ENE 19:52:06 10° N
Spot 2 Rocket 3.9 19:50:59 42° ENE 19:51:10 42° ENE 19:55:54 10° N
Cosmos 158 Rocket 4.1 19:47:10 10° SSW 19:52:01 67° WNW 19:56:53 10° NNE
ATLAS CENTAUR R/B 1.5 19:48:54 10° SW 19:52:26 58° NW 19:54:53 20° NNE
Cosmos 1805 Rocket 3.6 19:52:47 36° SSW 19:54:27 74° W 19:58:49 10° N
NOSS 3-4 (A) 4.0 19:47:58 10° NW 19:54:33 59° NE 19:57:11 40° E
NOSS 3-4 (C) 4.0 19:48:05 10° NW 19:54:40 59° NE 19:57:17 39° E
SL-24 R/B 4.4 20:01:55 50° S 20:03:10 79° W 20:08:01 10° N
Cosmos 2369 Rocket 2.4 19:58:58 10° NNW 20:04:35 52° NE 20:05:11 50° ENE
Cosmos 1862 Rocket 4.1 20:03:00 10° N 20:06:32 48° NNE 20:06:32 48° NNE
Meteor 1-21 4.2 20:03:06 10° NNW 20:08:53 84° W 20:10:23 52° S
Sich 1 3.9 20:07:33 25° SW 20:09:42 48° WNW 20:13:54 10° N
Cosmos 1943 Rocket 3.6 20:06:24 10° NW 20:11:12 31° WSW 20:14:05 20° SSW
Cosmos 1707 Rocket 3.8 20:07:19 10° N 20:11:04 59° NNE 20:11:04 59° NNE
Meteor 1-16 4.5 20:11:25 70° SSE 20:11:55 77° E 20:17:23 10° NNE
DELTA 2 DEB (DPAF) 4.1 20:07:46 10° N 20:11:47 71° NW 20:11:47 71° NW
Terra 1.8 20:13:52 74° NE 20:13:52 74° NE 20:18:19 10° N
ERS-1 Rocket 2.8 20:14:03 80° SSE 20:14:21 90° WSW 20:19:25 10° NNW
ACS3 Solar Sail 2.7 20:09:36 16° SSW 20:14:28 47° W 20:20:38 10° NNW
Cosmos 1975 3.8 20:18:58 43° NNW 20:18:58 43° NNW 20:21:48 10° N
Cosmos 2026 Rocket 4.4 20:17:12 10° NNW 20:23:18 58° W 20:25:51 34° SSW
Cosmos 1092 Rocket 4.4 20:17:34 10° NNW 20:23:48 60° W 20:26:28 34° SSW
Ariane Rocket 3.1 20:24:21 63° NE 20:24:21 63° NE 20:28:55 10° N
Cosmos 2266 Rocket 4.4 20:19:15 10° N 20:25:06 47° ENE 20:25:06 47° ENE
IRS-1A Rocket 4.5 20:26:28 54° SSW 20:27:37 67° WSW 20:33:18 10° NNW
SL-16 R/B 2.1 20:35:16 80° WSW 20:35:34 84° WNW 20:41:17 10° NNE
Okean O Rocket 4.0 20:35:02 14° SW 20:37:07 18° W 20:40:13 10° NW
Cosmos 1634 Rocket 4.3 20:36:32 34° SSW 20:39:16 64° WNW 20:45:35 10° N
Cosmos 1656 Rocket 3.8 20:35:45 10° NNW 20:41:19 66° WSW 20:41:19 66° WSW
Cosmos 2263 4.4 20:46:51 10° NNW 20:51:55 70° NNW 20:51:55 70° NNW
Cosmos 2228 Rocket 4.5 20:51:44 10° NNW 20:55:19 36° WNW 20:55:19 36° WNW
SPOT 3 Rocket 4.1 21:00:56 54° NW 21:00:56 54° NW 21:05:09 10° NNW
USA 267 3.2 21:08:22 70° NE 21:08:36 71° NNE 21:15:06 10° NW
Cosmos 1655 Rocket 4.3 21:05:16 10° N 21:10:37 59° NNE 21:10:37 59° NNE
ATLAS CENTAUR R/B 4.3 21:28:46 10° NW 21:35:08 - NNE 21:29:51 13° NW
Cosmos 2369 Rocket 3.9 21:43:28 10° NW 21:46:58 26° W 21:46:58 26° W
Terra 4.4 21:52:34 14° WNW 21:52:34 14° WNW 21:54:13 10° NW
Cosmos 1980 Rocket 4.4 22:06:49 10° N 22:10:17 16° NE 22:10:31 16° NE
SL-16 R/B 4.5 22:17:00 12° W 22:20:33 20° NW 22:24:40 10° N
ATLAS 2AS CENTAUR R/B 3.5 22:30:46 10° NW 22:36:31 44° NNE 22:36:31 44° NNE
Cosmos 1697 Rocket 4.4 22:49:34 10° NNW 22:52:28 29° N 22:52:28 29° N
Cosmos 2344 4.3 23:20:46 10° NW 23:27:14 57° WNW 23:27:14 57° WNW
